Weather in Kudus

Indonesia     6°47′53″S   110°49′53″E
temp.,
°C
wind,
m/s
gust,
m/s
humid.,
%
clouds,
%
prec.,
mm/h
press.,
hPa
HPBL,
m
29 july, thu
thu2901:00+22e477679 0.0 1011177
04:00+22e478210 0.0 1011198
07:00+24ese46765 0.0 1013271
10:00+30se554890 0.0 10131140
13:00+34se553482 0.0 10091883
16:00+33s13367 0.0 10081805
19:00+26se226794 0.0 101137
22:00+25e357582 0.0 1013119
30 july, fri
fri3001:00+23ese248247 0.0 101173
04:00+23ese238542 0.0 101146
07:00+24se358077 0.0 1013234
10:00+31se44535 0.0 10131176
13:00+34se234148 0.0 10092125
16:00+29nnw556112 0.0 1009458
19:00+27w127172 0.2 101261
22:00+25se477321 0.0 1014231
31 july, sat
sat3101:00+24ese49730 0.0 1012316
04:00+23ese48770 0.0 1011255
07:00+24ese487843 0.0 1013358
10:00+31se44514 0.0 10131139
13:00+34se344085 0.0 10092401
16:00+29n1259100 0.1 1009476
19:00+28se346720 0.4 1011118
22:00+25se487131 0.0 1012243
1 august, sun
sun101:00+25se477118 0.0 1011340
04:00+24ese488386 0.0 1011276
07:00+25ese46795 0.0 1012328
10:00+30se4454100 0.0 10121097
13:00+34sse3441100 0.0 10082126
16:00+30wnw1256100 0.2 1007136
19:00+26se227439 0.8 101031
22:00+25ese477689 0.1 1011202
2 august, mon
mon201:00+25se477550 0.1 1010298
04:00+23ese368123 0.0 1009150
07:00+25ese47745 0.0 1011315
10:00+31sse445010 0.0 10111187
13:00+34se343987 0.0 10082279
16:00+29n4459100 0.0 1007402
19:00+27ese117082 0.4 101034
22:00+25e257955 0.1 1011133